Wilmington, OH

11:21 PM EST on January 19, 2018 (GMT -0500)
Airborne

Weather History for KILN - March, 2014

Change the Weather History Date:

Sunday, March 9, 2014

  Actual Average (KFFO) Record (KFFO)
Temperature  
Mean Temperature 37 °F -  
Max Temperature 44 °F 43 °F 73 °F (2016)
Min Temperature 30 °F 24 °F 1 °F (2008)
Degree Days  
Heating Degree Days 28    
Moisture  
Dew Point 27 °F    
Average Humidity 76    
Maximum Humidity 96    
Minimum Humidity 51    
Precipitation  
Precipitation 0.00 in - - ()
Sea Level Pressure  
Sea Level Pressure 30.19 in    
Wind  
Wind Speed 8 mph (West)    
Max Wind Speed 13 mph    
Max Gust Speed 16 mph    
Visibility 6 miles    
Events      
Averages and records for this station are not official NWS values.
T = Trace of Precipitation, MM = Missing Value Source: NWS Daily Summary

Daily Weather History Graph

Daily Weather History Graph

Search for Another Location

Airport or City:

Trip Planner

Search our weather history database for the weather conditions in past years. The results will help you decide how hot, cold, wet, or windy it might be!

Date:

Astronomy

Mar. 09, 2014 Rise Set
Actual Time 7:55 AM EDT 7:35 PM EDT
Civil Twilight 7:29 AM EDT 8:02 PM EDT
Nautical Twilight 6:58 AM EDT 8:33 PM EDT
Astronomical Twilight 6:26 AM EDT 9:05 PM EDT
Moon 1:29 PM EDT (3/9) 3:19 AM EDT (3/9)
Length of Visible Light 12h 33m
Length of Day
11h 40m
First Quarter, 61% of the Moon is Illuminated
Mar 9
First Quarter
Mar 16
Full
Mar 23
Last Quarter
Mar 30
New
Apr 7
First Quarter

Hourly Weather History & Observations

Time (EDT) Temp. Windchill Dew Point Humidity Pressure Visibility Wind Dir Wind Speed Gust Speed Precip Events Conditions
12:31 AM 33.1 °F 25.5 °F 30.9 °F 92% 30.14 in 2.5 mi North 9.2 mph - N/A   Overcast
12:54 AM 32.0 °F 24.2 °F 30.9 °F 96% 30.21 in 1.8 mi NNW 9.2 mph - N/A   Overcast
1:09 AM 32.0 °F 23.6 °F 30.9 °F 96% 30.15 in 2.0 mi NNW 10.4 mph - N/A   Overcast
1:19 AM 32.0 °F 24.8 °F 30.9 °F 96% 30.15 in 1.8 mi NNW 8.1 mph - N/A   Overcast
1:54 AM 30.9 °F 21.7 °F 30.0 °F 96% 30.22 in 1.8 mi North 11.5 mph - N/A   Overcast
3:02 AM 30.9 °F 22.2 °F 30.0 °F 96% 30.16 in 2.0 mi North 10.4 mph - N/A   Overcast
3:22 AM 30.9 °F 24.3 °F 30.0 °F 96% 30.17 in 2.5 mi North 6.9 mph - N/A   Overcast
3:31 AM 30.9 °F 23.5 °F 30.0 °F 96% 30.17 in 3.0 mi North 8.1 mph - N/A   Overcast
3:54 AM 30.9 °F 23.5 °F 28.9 °F 92% 30.22 in 4.0 mi North 8.1 mph - N/A   Overcast
4:54 AM 30.9 °F 23.5 °F 28.9 °F 92% 30.22 in 5.0 mi North 8.1 mph - N/A   Overcast
5:54 AM 30.9 °F 24.3 °F 27.0 °F 85% 30.24 in 6.0 mi NNW 6.9 mph - N/A   Overcast
6:54 AM 30.9 °F 26.2 °F 25.0 °F 79% 30.25 in 7.0 mi NNW 4.6 mph - N/A   Overcast
7:54 AM 30.0 °F 24.1 °F 24.1 °F 79% 30.30 in 7.0 mi NNE 5.8 mph - N/A   Overcast
8:54 AM 30.9 °F - 23.0 °F 72% 30.31 in 6.0 mi Calm Calm - N/A   Haze
9:54 AM 30.9 °F - 23.0 °F 72% 30.32 in 7.0 mi Calm Calm - N/A   Overcast
10:54 AM 33.1 °F - 24.1 °F 70% 30.32 in 6.0 mi Calm Calm - N/A   Haze
11:54 AM 33.1 °F 27.7 °F 25.0 °F 72% 30.32 in 6.0 mi West 5.8 mph - N/A   Haze
12:54 PM 35.1 °F 29.3 °F 26.1 °F 70% 30.28 in 6.0 mi SSW 6.9 mph - N/A   Haze
1:54 PM 37.9 °F 32.1 °F 27.0 °F 65% 30.26 in 7.0 mi SSW 8.1 mph - N/A   Scattered Clouds
2:54 PM 41.0 °F 34.7 °F 27.0 °F 57% 30.22 in 9.0 mi SSW 10.4 mph - N/A   Partly Cloudy
3:54 PM 43.0 °F 37.2 °F 28.0 °F 56% 30.19 in 10.0 mi SSW 10.4 mph - N/A   Clear
4:54 PM 44.1 °F 37.7 °F 27.0 °F 51% 30.17 in 8.0 mi SW 12.7 mph 16.1 mph N/A   Clear
5:54 PM 43.0 °F 36.4 °F 27.0 °F 53% 30.14 in 10.0 mi SW 12.7 mph - N/A   Clear
6:54 PM 41.0 °F 35.8 °F 27.0 °F 57% 30.13 in 10.0 mi SW 8.1 mph - N/A   Clear
7:54 PM 37.9 °F 32.7 °F 24.1 °F 57% 30.12 in 10.0 mi SSW 6.9 mph - N/A   Clear
8:54 PM 35.1 °F 30.1 °F 25.0 °F 67% 30.12 in 10.0 mi SSW 5.8 mph - N/A   Clear
9:54 PM 35.1 °F 29.3 °F 25.0 °F 67% 30.11 in 10.0 mi SW 6.9 mph - N/A   Clear
10:54 PM 33.1 °F 26.1 °F 25.0 °F 72% 30.09 in 10.0 mi SSW 8.1 mph - N/A   Clear
11:54 PM 34.0 °F 25.5 °F 25.0 °F 70% 30.06 in 10.0 mi SSW 11.5 mph - N/A   Clear
12:54 AM 35.1 °F 26.9 °F 25.0 °F 67% 30.05 in 10.0 mi SW 11.5 mph - N/A   Clear